map of HUJ home
HUJ - Airport
Location
City:  Hugo, Oklahoma, United States
Name:Stan Stamper Municipal Airport
ICAO:KHHW
IATA:HUJ
FAA LID:HHW

Details
Type:Airport (Airfield)
Use:Public/Civil
Latitude:3402'01"N (34.033639)
Longitude:9532'31"W (-95.542055)
Datum:WGS 1984
Elevation:572 ft (174 m)
Variation:2.60E (WMM2015 magnetic declination)
-0.11 annual change
Runways:1
Longest:4007 × 75 ft (1221 × 23 m), paved

Time
Time Zone:UTC-6 (DST-5)
Local Time:

Weather
METAR:KHHW 060515Z AUTO 00000KT 5SM BR OVC004 08/08 A2975 RMK AO2 T00830075

Related Locations
Nearby:
Farthest:RRG: 10815 mi / 17404 km
Plaine Corail, Rodrigues Island, MU

Find:

   beyond  
but within

Other Information
Maps:
NOTAMs:
Links:
Sources:

  
flag of United States
flag of Oklahoma
  

Sectional Chart

Flight Planning
at skyvector.com

Satellite Image

Google Maps Satellite view

 

Copyright © 2004-2016 Karl L. Swartz. All rights reserved.
The Great Circle Mapper name and logo are trademarks of the Great Circle Mapper.
All other trademarks mentioned herein belong to their respective owners.
Please see credits for attibutions and further copyright information.

  Follow gcmap on Facebook Follow gcmap on Twitter Follow gcmap on Google+ GCmap on LinkedIn

hCard Microformat

Geo Microformat